[[{"header":{"parameterUnit":"m.s-1","parameterCategory":2,"la1":30.2991,"la2":30.254,"lo1":-89.0895,"lo2":-89.0444,"dy":0.0017,"dx":0.0017,"nx":28,"ny":28,"refTime":"2024-02-27T09:00:00:Z","depth":"0","parameterNumber":2,"parameterNumberName":"U-component_of_CURRENTS"},"data":[0,0,0,0,0,0,0,0,0,0,0,0,0,0,0,0,0,0,0,0,0,0,0,0,0,0,0,0,0,0,0,0,0,0,0,0,0,0,0,0,0,0,0,0,0,0,0,0,0,0,0,0,0,0,0,0,0,0,-0.3134,-0.3135,0,-0.3176,-0.3177,-0.3177,-0.3128,-0.3126,-0.3125,-0.3123,-0.3064,-0.3064,-0.3064,0,0,0,0,0,0,0,0,0,0,0,0,0,-0.3004,-0.3006,-0.3134,-0.3135,-0.3136,-0.3176,-0.3177,-0.3177,-0.3128,-0.3126,-0.3124,-0.3123,-0.3064,-0.3064,-0.3064,0,0,0,0,0,0,0,0,0,0,0,0,0,-0.3051,-0.3007,-0.3134,-0.312,-0.3119,-0.3176,-0.3177,-0.3177,-0.3128,-0.3126,-0.3124,-0.3122,-0.3065,-0.3064,-0.3064,-0.3105,0,0,-0.3063,-0.3063,0,0,0,0,0,0,0,0,-0.3048,-0.3055,-0.3121,-0.3121,-0.312,-0.3148,-0.3109,-0.3149,-0.3129,-0.312,-0.3123,-0.3121,-0.3088,-0.3085,-0.3093,-0.3102,-0.31,-0.3063,-0.3063,-0.3062,-0.3062,0,0,0,0,0,0,0,-0.3045,-0.3053,-0.3147,-0.3122,-0.3122,-0.3109,-0.3113,-0.3117,-0.311,-0.3121,-0.3118,-0.3131,-0.3086,-0.3094,-0.3091,-0.3099,-0.3063,-0.3063,-0.3062,-0.3062,-0.3098,-0.3099,0,0,0,0,0,0,-0.3052,-0.3051,-0.3145,-0.3148,-0.3083,-0.3113,-0.3118,-0.3138,-0.3112,-0.3109,-0.3133,-0.3128,-0.3095,-0.3092,-0.3089,-0.3093,-0.3062,-0.3062,-0.3062,-0.3097,-0.3098,-0.3099,0,0,0,0,0,0,-0.3049,-0.3061,-0.3144,-0.3103,-0.3113,-0.3119,-0.3142,-0.314,-0.3139,-0.3123,-0.3116,-0.3132,-0.3094,-0.3089,-0.3083,-0.3092,-0.3062,-0.3062,-0.3095,-0.3097,-0.3099,-0.3129,0,0,0,0,0,0,-0.3045,-0.3059,-0.3064,-0.3104,-0.3116,-0.3156,-0.3144,-0.3143,-0.3153,-0.3147,-0.3121,-0.3114,-0.3092,-0.3084,-0.3083,-0.3091,-0.3061,-0.3094,-0.3096,-0.3098,-0.3127,-0.3132,-0.3136,0,0,0,0,0,-0.3041,-0.3048,-0.3064,-0.3075,-0.3127,-0.3157,-0.316,-0.3154,-0.3155,-0.3147,-0.3139,-0.3114,-0.3096,-0.3085,-0.3083,-0.3091,-0.3093,-0.3095,-0.3098,-0.3125,-0.3131,-0.3136,0,0,0,0,0,0,-0.2996,-0.3047,-0.3063,-0.3088,-0.3115,-0.3149,-0.3143,-0.3161,-0.3154,-0.3143,-0.313,-0.3122,-0.3122,-0.311,-0.3098,-0.311,-0.3091,-0.3094,-0.3112,-0.3118,-0.3122,-0.3094,-0.3061,0,0,0,0,0,-0.2995,-0.3005,-0.3062,-0.3076,-0.3092,-0.3125,-0.3136,-0.3142,-0.3153,-0.3147,-0.314,-0.3133,-0.3138,-0.3128,-0.3124,-0.3133,-0.3108,-0.3139,-0.3144,-0.3147,-0.3125,-0.3084,-0.3081,-0.3108,-0.3108,-0.3108,0,0,-0.2979,-0.3011,-0.3015,-0.3066,-0.3085,-0.3107,-0.3123,-0.3138,-0.3153,-0.3144,-0.3143,-0.3149,-0.3146,-0.315,-0.3149,-0.3135,-0.3139,-0.3151,-0.3154,-0.3129,-0.3086,-0.3083,-0.308,-0.3109,-0.3109,-0.3109,0,0,-0.2949,-0.2987,-0.2982,-0.3012,-0.3051,-0.3082,-0.3091,-0.3132,-0.3137,-0.3157,-0.3158,-0.3159,-0.3171,-0.3161,-0.3163,-0.3193,-0.3169,-0.3211,-0.3203,-0.3165,-0.3161,-0.3157,-0.3169,-0.3166,-0.3208,-0.3208,-0.3208,0,-0.2919,-0.2947,-0.2984,-0.2997,-0.3025,-0.3073,-0.309,-0.3111,-0.3143,-0.3156,-0.3148,-0.3171,-0.3166,-0.3175,-0.3188,-0.3198,-0.3193,-0.3182,-0.3167,-0.3163,-0.3158,-0.3171,-0.3167,-0.321,-0.321,-0.321,-0.3209,0,-0.289,-0.2922,-0.2924,-0.2962,-0.2994,-0.3016,-0.3071,-0.3093,-0.3122,-0.3146,-0.3162,-0.316,-0.3166,-0.3183,-0.3194,-0.3184,-0.3201,-0.3181,-0.3146,-0.3157,-0.3171,-0.3166,-0.3212,-0.3212,-0.3211,-0.3211,0,0,-0.2794,-0.2885,-0.2882,-0.2918,-0.2986,-0.3012,-0.3048,-0.3098,-0.3123,-0.3135,-0.3152,-0.3164,-0.3169,-0.3171,-0.3188,-0.3159,-0.3151,-0.3164,-0.3161,-0.3164,-0.3106,-0.3148,-0.3147,-0.3129,-0.3127,-0.3126,-0.3146,0,-0.2757,-0.2794,-0.2848,-0.2888,-0.2924,-0.2996,-0.3029,-0.3078,-0.3121,-0.3145,-0.3146,-0.3159,-0.3166,-0.3175,-0.3149,-0.3154,-0.3133,-0.315,-0.3104,-0.3103,-0.3127,-0.314,-0.3094,-0.3108,-0.3141,-0.314,-0.3139,0,-0.2702,-0.2748,-0.2788,-0.289,-0.2908,-0.293,-0.3013,-0.3051,-0.3104,-0.3132,-0.3141,-0.3157,-0.3148,-0.3134,-0.3107,-0.3124,-0.3112,-0.3102,-0.3101,-0.3113,-0.3134,-0.3094,-0.3098,-0.3098,-0.3132,-0.3132,-0.3133,0,-0.2627,-0.2705,-0.2745,-0.2776,-0.2885,-0.2907,-0.2957,-0.3032,-0.3072,-0.3115,-0.3138,-0.3134,-0.3132,-0.3096,-0.3112,-0.3102,-0.3081,-0.3057,-0.308,-0.3086,-0.302,-0.3021,-0.2996,-0.3001,-0.3001,-0.3001,-0.3001,0,-0.2581,-0.2605,-0.271,-0.273,-0.2766,-0.2859,-0.2896,-0.2953,-0.3025,-0.3058,-0.3112,-0.313,-0.3115,-0.3126,-0.3111,-0.3107,-0.3077,-0.3075,-0.3079,-0.3039,-0.3042,-0.3017,-0.303,-0.3002,-0.3002,-0.3001,-0.3001,0,-0.2488,-0.2564,-0.2606,-0.2707,-0.2734,-0.2752,-0.2851,-0.2882,-0.2968,-0.3012,-0.3022,-0.3113,-0.3132,-0.3151,-0.312,-0.3116,-0.307,-0.31,-0.3093,-0.3094,-0.31,-0.3118,-0.3038,-0.2954,-0.3107,-0.3108,-0.3109,0,-0.2445,-0.2459,-0.2554,-0.2575,-0.2613,-0.2664,-0.2699,-0.2817,-0.2862,-0.2998,-0.3006,-0.3078,-0.313,-0.3163,-0.3162,-0.3164,-0.3098,-0.3112,-0.3058,-0.3094,-0.3115,-0.3071,-0.3,-0.3006,-0.3005,-0.3005,-0.3005,0,-0.2346,-0.2375,-0.2412,-0.246,-0.2496,-0.254,-0.2605,-0.2648,-0.2786,-0.2868,-0.2974,-0.3041,-0.3128,-0.3161,-0.3203,-0.316,-0.3062,-0.3111,-0.3112,-0.3006,-0.2984,-0.2908,-0.3047,-0.3004,-0.3004,-0.3004,-0.3005,-0.3005,-0.2243,-0.2241,-0.229,-0.2322,-0.2364,-0.2394,-0.2396,-0.2524,-0.2612,-0.2766,-0.2897,-0.3065,-0.3163,-0.3232,-0.3196,-0.3142,-0.3073,-0.3051,-0.3068,-0.3017,-0.293,-0.3109,-0.3093,-0.3093,-0.3094,-0.3094,-0.3094,0,-0.2113,-0.2131,-0.2154,-0.2191,-0.2183,-0.2248,-0.2311,-0.2323,-0.2417,-0.2688,-0.2838,-0.3156,-0.3203,-0.326,-0.3268,-0.3162,-0.3001,-0.3043,-0.2941,-0.2863,-0.299,-0.2981,-0.2982,-0.2982,-0.2982,-0.2982,-0.2982,-0.2982,-0.2047,-0.2022,-0.2042,-0.1991,-0.2013,-0.1973,-0.1979,-0.206,-0.2224,-0.2535,-0.2862,-0.3159,-0.3249,-0.3499,-0.3394,-0.3215,-0.3046,-0.2948,-0.2901,-0.3009,-0.3009,-0.3009,-0.3001,-0.3006,-0.3007,-0.2673,-0.2671,-0.267]},{"header":{"parameterUnit":"m.s-1","parameterCategory":2,"la1":30.2991,"la2":30.254,"lo1":-89.0895,"lo2":-89.0444,"dy":0.0017,"dx":0.0017,"nx":28,"ny":28,"refTime":"2024-02-27T09:00:00:Z","depth":"0","parameterNumber":3,"parameterNumberName":"V-component_of_CURRENTS"},"data":[0,0,0,0,0,0,0,0,0,0,0,0,0,0,0,0,0,0,0,0,0,0,0,0,0,0,0,0,0,0,0,0,0,0,0,0,0,0,0,0,0,0,0,0,0,0,0,0,0,0,0,0,0,0,0,0,0,0,-0.0341,-0.0339,0,-0.0218,-0.0217,-0.0216,-0.0154,-0.0153,-0.0153,-0.0153,-0.002,-0.0017,-0.0014,0,0,0,0,0,0,0,0,0,0,0,0,0,-0.0495,-0.0492,-0.0341,-0.0339,-0.0338,-0.0218,-0.0217,-0.0216,-0.0154,-0.0153,-0.0153,-0.0153,-0.0021,-0.0017,-0.0013,0,0,0,0,0,0,0,0,0,0,0,0,0,-0.0408,-0.0492,-0.0341,-0.0291,-0.0285,-0.0219,-0.0217,-0.0215,-0.0154,-0.0153,-0.0153,-0.0153,-0.0022,-0.0018,-0.0013,0.001,0,0,0.0002,0.0005,0,0,0,0,0,0,0,0,-0.0413,-0.0403,-0.03,-0.0294,-0.0287,-0.0199,-0.0222,-0.0138,-0.0154,-0.0206,-0.0153,-0.0153,-0.0078,-0.0068,-0.0049,0.0016,0.0022,0.0003,0.0006,0.0008,0.0009,0,0,0,0,0,0,0,-0.0419,-0.0407,-0.0295,-0.0298,-0.029,-0.0264,-0.0252,-0.0206,-0.0147,-0.0201,-0.0196,-0.0179,-0.0074,-0.0054,-0.0046,0.0024,0.0003,0.0007,0.001,0.0012,0.0119,0.0119,0,0,0,0,0,0,-0.0431,-0.0413,-0.0299,-0.0291,-0.0348,-0.0262,-0.0248,-0.023,-0.0148,-0.0134,-0.0179,-0.0176,-0.0063,-0.0052,-0.0041,-0.0005,0.0008,0.0013,0.0015,0.0119,0.0119,0.0119,0,0,0,0,0,0,-0.0435,-0.0422,-0.0304,-0.0348,-0.033,-0.026,-0.0239,-0.0227,-0.0205,-0.013,-0.0117,-0.0169,-0.0062,-0.0048,0.0,0.0,0.0015,0.0019,0.0119,0.0119,0.0119,0.0064,0,0,0,0,0,0,-0.044,-0.0424,-0.0422,-0.0348,-0.0328,-0.0269,-0.0239,-0.0225,-0.0194,-0.0189,-0.0117,-0.0104,-0.0061,-0.0008,0.0005,0.0007,0.0023,0.012,0.0119,0.0119,0.0066,0.0062,0.0058,0,0,0,0,0,-0.0446,-0.0446,-0.0423,-0.0409,-0.0326,-0.0268,-0.0256,-0.0206,-0.0194,-0.0186,-0.0137,-0.0107,-0.0,-0.0003,0.0011,0.0015,0.012,0.0119,0.0119,0.0067,0.0063,0.0058,0,0,0,0,0,0,-0.0512,-0.0437,-0.0411,-0.0388,-0.0333,-0.0257,-0.0247,-0.0212,-0.0167,-0.0166,-0.0102,-0.0085,-0.0049,-0.0009,-0.0014,0.0044,0.0062,0.0065,0.0018,0.0014,0.001,0.0005,0.0027,0,0,0,0,0,-0.0526,-0.0506,-0.0428,-0.0411,-0.0388,-0.032,-0.0294,-0.0256,-0.0202,-0.0182,-0.0132,-0.0081,-0.0039,-0.0007,0.0033,0.0073,0.0115,0.0083,0.0079,0.0076,0.0081,0.0148,0.0151,0.0118,0.0118,0.0118,0,0,-0.0547,-0.0503,-0.0492,-0.0424,-0.0382,-0.0354,-0.0304,-0.0266,-0.0243,-0.0175,-0.0141,-0.0096,-0.0034,0.0005,0.0026,0.0041,0.0103,0.0076,0.0072,0.008,0.0148,0.0152,0.0155,0.0118,0.0118,0.0118,0,0,-0.058,-0.0541,-0.0536,-0.0497,-0.0433,-0.0385,-0.0377,-0.0303,-0.0272,-0.0225,-0.0179,-0.0127,-0.0062,-0.001,0.0023,0.0026,0.0073,0.0027,0.0018,0.0082,0.0086,0.0089,0.0128,0.0136,0.0035,0.0035,0.0035,0,-0.0607,-0.0589,-0.0527,-0.0513,-0.0491,-0.0405,-0.0399,-0.0349,-0.027,-0.0241,-0.0224,-0.0114,-0.0065,-0.0001,-0.0003,0.0019,0.0051,0.0029,0.0078,0.0083,0.0087,0.0127,0.0136,0.0032,0.0033,0.0033,0.0033,0,-0.0632,-0.0621,-0.0618,-0.0571,-0.054,-0.052,-0.0443,-0.0405,-0.0357,-0.0299,-0.0231,-0.0151,-0.0081,-0.0062,-0.0029,0.0026,0.0034,0.0056,0.0088,0.0087,0.0129,0.0139,0.0029,0.003,0.003,0.0031,0,0,-0.0675,-0.0643,-0.0641,-0.0641,-0.0573,-0.0549,-0.051,-0.0442,-0.0411,-0.0324,-0.0275,-0.0188,-0.0133,-0.0093,-0.0038,0.0025,0.0079,0.0049,0.0053,0.0085,0.0201,0.0247,0.0263,0.0107,0.0109,0.0111,0.021,0,-0.0712,-0.0725,-0.0687,-0.0693,-0.0694,-0.0617,-0.0588,-0.0516,-0.0443,-0.0372,-0.0261,-0.02,-0.0148,-0.0115,-0.0042,0.0049,0.0107,0.0049,0.02,0.0204,0.0244,0.0277,0.0303,0.0398,0.022,0.0222,0.0223,0,-0.0744,-0.0752,-0.0779,-0.0762,-0.0754,-0.0739,-0.0677,-0.0638,-0.0513,-0.0457,-0.0354,-0.0263,-0.0148,-0.0112,0.0064,0.0021,0.0101,0.0175,0.0181,0.0255,0.0271,0.0375,0.0425,0.0638,0.024,0.0239,0.0238,0,-0.0816,-0.0813,-0.0844,-0.0838,-0.08,-0.0794,-0.0764,-0.0667,-0.0634,-0.0507,-0.0461,-0.0303,-0.0228,-0.0088,0.0079,0.0067,0.0267,0.0273,0.0391,0.0393,0.0464,0.0471,0.0741,0.0389,0.0389,0.0389,0.0388,0,-0.087,-0.089,-0.0883,-0.0899,-0.0928,-0.0872,-0.0868,-0.0808,-0.0716,-0.068,-0.0515,-0.0444,-0.022,-0.0068,0.0072,0.0276,0.0269,0.0402,0.0435,0.0443,0.0446,0.0674,0.0772,0.0392,0.0392,0.0391,0.039,0,-0.0938,-0.0932,-0.0969,-0.0963,-0.0966,-0.0987,-0.096,-0.0945,-0.0848,-0.0793,-0.0756,-0.0544,-0.0344,-0.0114,0.012,0.0263,0.0578,0.0515,0.05,0.0531,0.0836,0.0928,0.1221,0.1292,0.0664,0.0666,0.0667,0,-0.097,-0.1,-0.1037,-0.1075,-0.1078,-0.1097,-0.1109,-0.103,-0.101,-0.0857,-0.0834,-0.0616,-0.0463,-0.0073,0.0232,0.0515,0.0659,0.0694,0.0691,0.0882,0.101,0.1066,0.1106,0.0751,0.0753,0.0754,0.0756,0,-0.1034,-0.1049,-0.1086,-0.1178,-0.1215,-0.1249,-0.1255,-0.1262,-0.1159,-0.1102,-0.0989,-0.0851,-0.0425,-0.0045,0.037,0.0532,0.086,0.0739,0.096,0.1131,0.1191,0.1263,0.0636,0.0772,0.077,0.0769,0.0768,0.0768,-0.1076,-0.1132,-0.1195,-0.1278,-0.1333,-0.1393,-0.1437,-0.1427,-0.1416,-0.1334,-0.1144,-0.0918,-0.0268,0.0337,0.056,0.1071,0.1006,0.1189,0.129,0.1332,0.1409,0.0807,0.0969,0.0969,0.0968,0.0968,0.0968,0,-0.1129,-0.1201,-0.1292,-0.1395,-0.1486,-0.1478,-0.1527,-0.1575,-0.1604,-0.1464,-0.134,-0.0635,-0.0004,0.0603,0.1382,0.1638,0.1651,0.1736,0.1838,0.1851,0.135,0.1364,0.1592,0.1592,0.1592,0.1592,0.1591,0.1591,-0.116,-0.1268,-0.1329,-0.1507,-0.1581,-0.1693,-0.1732,-0.1792,-0.1733,-0.1532,-0.1169,-0.0859,0.0177,0.154,0.2247,0.2247,0.2435,0.2392,0.249,0.2177,0.2133,0.2091,0.213,0.2516,0.2517,0.293,0.2935,0.2939]}],[{"header":{"parameterUnit":"m.s-1","parameterCategory":2,"la1":30.2991,"la2":30.254,"lo1":-89.0895,"lo2":-89.0444,"dy":0.0017,"dx":0.0017,"nx":28,"ny":28,"refTime":"2024-02-27T09:00:00:Z","depth":"2","parameterNumber":2,"parameterNumberName":"U-component_of_CURRENTS"},"data":[0,0,0,0,0,0,0,0,0,0,0,0,0,0,0,0,0,0,0,0,0,0,0,0,0,0,0,0,0,0,0,0,0,0,0,0,0,0,0,0,0,0,0,0,0,0,0,0,0,0,0,0,0,0,0,0,0,0,-0.3054,-0.3055,0,-0.3103,-0.3103,-0.3104,-0.3051,-0.3049,-0.3047,-0.3046,-0.2989,-0.2989,-0.2989,0,0,0,0,0,0,0,0,0,0,0,0,0,-0.2933,-0.2935,-0.3054,-0.3055,-0.3056,-0.3103,-0.3103,-0.3104,-0.3051,-0.3049,-0.3047,-0.3045,-0.2989,-0.2989,-0.2989,0,0,0,0,0,0,0,0,0,0,0,0,0,-0.2981,-0.2936,-0.3054,-0.3039,-0.3038,-0.3103,-0.3103,-0.3104,-0.3051,-0.3049,-0.3047,-0.3044,-0.2989,-0.2989,-0.2989,-0.3038,0,0,-0.2989,-0.2989,0,0,0,0,0,0,0,0,-0.2978,-0.2984,-0.304,-0.304,-0.3039,-0.3072,-0.304,-0.3078,-0.3052,-0.3042,-0.3046,-0.3043,-0.3011,-0.301,-0.302,-0.3036,-0.3033,-0.2989,-0.2989,-0.2989,-0.2989,0,0,0,0,0,0,0,-0.2975,-0.2982,-0.3069,-0.3041,-0.3041,-0.3036,-0.3039,-0.3047,-0.3035,-0.3043,-0.304,-0.3053,-0.3009,-0.302,-0.3018,-0.3032,-0.2989,-0.2989,-0.2989,-0.2989,-0.3034,-0.3035,0,0,0,0,0,0,-0.2979,-0.298,-0.3068,-0.3071,-0.3007,-0.304,-0.3044,-0.3061,-0.3037,-0.3033,-0.3055,-0.305,-0.3021,-0.3018,-0.3015,-0.302,-0.2989,-0.2989,-0.2989,-0.3033,-0.3034,-0.3035,0,0,0,0,0,0,-0.2977,-0.2987,-0.3066,-0.3029,-0.3039,-0.3045,-0.3064,-0.3063,-0.3063,-0.3048,-0.3041,-0.3055,-0.3019,-0.3015,-0.3011,-0.3019,-0.2989,-0.2989,-0.3031,-0.3033,-0.3035,-0.3062,0,0,0,0,0,0,-0.2973,-0.2986,-0.299,-0.303,-0.3042,-0.308,-0.3067,-0.3066,-0.3078,-0.3071,-0.3047,-0.3039,-0.3017,-0.3011,-0.3011,-0.3018,-0.2989,-0.303,-0.3032,-0.3034,-0.306,-0.3065,-0.3069,0,0,0,0,0,-0.2969,-0.2974,-0.299,-0.3,-0.305,-0.3081,-0.3085,-0.3078,-0.308,-0.3071,-0.3065,-0.304,-0.3024,-0.3012,-0.3012,-0.3019,-0.3029,-0.3031,-0.3034,-0.3058,-0.3064,-0.3069,0,0,0,0,0,0,-0.2923,-0.2971,-0.2988,-0.3009,-0.3037,-0.3072,-0.3067,-0.3086,-0.3081,-0.307,-0.3057,-0.305,-0.305,-0.304,-0.3027,-0.3041,-0.3023,-0.3025,-0.3041,-0.3046,-0.3051,-0.3023,-0.2989,0,0,0,0,0,-0.2923,-0.2931,-0.2986,-0.2999,-0.3014,-0.305,-0.3062,-0.3068,-0.3079,-0.3074,-0.3067,-0.3062,-0.3068,-0.3058,-0.3056,-0.3068,-0.3044,-0.3074,-0.3078,-0.3082,-0.306,-0.3021,-0.3018,-0.3044,-0.3044,-0.3044,0,0,-0.2907,-0.2937,-0.294,-0.2989,-0.3009,-0.3031,-0.3047,-0.3064,-0.3078,-0.3071,-0.3071,-0.3079,-0.3077,-0.3082,-0.3081,-0.3068,-0.3075,-0.3085,-0.3088,-0.3064,-0.3023,-0.302,-0.3017,-0.3046,-0.3045,-0.3045,0,0,-0.2877,-0.2911,-0.2906,-0.2936,-0.2976,-0.3007,-0.3016,-0.3058,-0.3063,-0.3085,-0.3087,-0.3088,-0.3103,-0.3093,-0.3095,-0.3126,-0.3104,-0.3145,-0.3137,-0.31,-0.3096,-0.3092,-0.3105,-0.3102,-0.3141,-0.3142,-0.3142,0,-0.2848,-0.2874,-0.2908,-0.2921,-0.295,-0.2998,-0.3015,-0.3037,-0.307,-0.3083,-0.3075,-0.3102,-0.3098,-0.3107,-0.312,-0.3131,-0.3128,-0.3115,-0.3102,-0.3097,-0.3093,-0.3106,-0.3102,-0.3143,-0.3143,-0.3143,-0.3143,0,-0.282,-0.2849,-0.2851,-0.2889,-0.292,-0.2942,-0.2996,-0.3018,-0.3047,-0.3072,-0.3089,-0.3089,-0.3097,-0.3113,-0.3126,-0.3117,-0.3135,-0.3115,-0.308,-0.3091,-0.3106,-0.3102,-0.3146,-0.3145,-0.3144,-0.3144,0,0,-0.2725,-0.2813,-0.2811,-0.2845,-0.2913,-0.2938,-0.2973,-0.3023,-0.3048,-0.3061,-0.3079,-0.3092,-0.3099,-0.3101,-0.3119,-0.3092,-0.3084,-0.3098,-0.3095,-0.3097,-0.3043,-0.3082,-0.3081,-0.3064,-0.3062,-0.3061,-0.3081,0,-0.2689,-0.2725,-0.2778,-0.2817,-0.2852,-0.2922,-0.2955,-0.3003,-0.3046,-0.3071,-0.3073,-0.3088,-0.3095,-0.3106,-0.3081,-0.3088,-0.3067,-0.3082,-0.3041,-0.3041,-0.3061,-0.3074,-0.2768,-0.2762,-0.3077,-0.3076,-0.3076,0,-0.2637,-0.2681,-0.272,-0.2819,-0.2836,-0.2859,-0.2939,-0.2977,-0.303,-0.3058,-0.3069,-0.3087,-0.308,-0.3066,-0.3042,-0.3059,-0.3048,-0.3038,-0.3038,-0.3049,-0.3069,-0.2794,-0.2742,-0.3068,-0.3068,-0.3069,-0.307,0,-0.2563,-0.2639,-0.2678,-0.2708,-0.2813,-0.2836,-0.2885,-0.2959,-0.2999,-0.3043,-0.3067,-0.3065,-0.3065,-0.3031,-0.3048,-0.3038,-0.3021,-0.2997,-0.3018,-0.3023,-0.2738,-0.2721,-0.2943,-0.2943,-0.2943,-0.2943,-0.2943,0,-0.2518,-0.2541,-0.2643,-0.2663,-0.2698,-0.2789,-0.2826,-0.2882,-0.2954,-0.2987,-0.3042,-0.3061,-0.305,-0.3062,-0.3048,-0.3046,-0.3017,-0.3013,-0.3017,-0.2751,-0.2735,-0.2967,-0.297,-0.2944,-0.2943,-0.2943,-0.2943,0,-0.2427,-0.2501,-0.2542,-0.264,-0.2667,-0.2684,-0.2782,-0.2812,-0.2899,-0.2943,-0.2954,-0.3046,-0.3067,-0.3087,-0.3059,-0.3055,-0.3038,-0.3039,-0.2771,-0.2744,-0.3066,-0.307,-0.3043,-0.3044,-0.3045,-0.3046,-0.3047,0,-0.2384,-0.2399,-0.2491,-0.2511,-0.2549,-0.2599,-0.2633,-0.2749,-0.2794,-0.2929,-0.2938,-0.3012,-0.3055,-0.309,-0.3023,-0.3008,-0.3075,-0.2779,-0.269,-0.3063,-0.307,-0.3072,-0.3075,-0.2332,-0.2327,-0.2323,-0.2319,0,-0.2287,-0.2316,-0.2352,-0.2399,-0.2434,-0.2476,-0.254,-0.2582,-0.2718,-0.2791,-0.2897,-0.2955,-0.2983,-0.2849,-0.2864,-0.2802,-0.276,-0.2701,-0.3089,-0.2396,-0.2405,-0.2409,-0.2431,-0.2282,-0.2285,-0.2288,-0.229,-0.2292,-0.2187,-0.2184,-0.2232,-0.2263,-0.2304,-0.2332,-0.2334,-0.2426,-0.25,-0.2568,-0.2736,-0.2735,-0.2716,-0.2591,-0.2506,-0.2418,-0.2599,-0.2471,-0.2477,-0.2489,-0.2444,-0.2458,-0.2339,-0.2342,-0.2346,-0.2349,-0.2352,0,-0.2045,-0.2076,-0.2098,-0.2133,-0.2109,-0.2189,-0.2249,-0.2206,-0.2245,-0.2348,-0.2419,-0.2218,-0.217,-0.217,-0.1968,-0.1992,-0.1878,-0.1927,-0.1735,-0.1774,-0.1808,-0.1722,-0.1429,-0.1426,-0.1424,-0.1423,0,0,-0.1976,-0.1944,-0.1962,-0.1903,-0.1937,-0.1869,-0.1873,-0.185,-0.1866,-0.1838,-0.185,-0.203,-0.2102,-0.1754,-0.168,-0.1529,-0.1628,-0.1452,-0.2179,-0.1988,-0.2019,-0.2104,-0.2016,0,0,0,0,0]},{"header":{"parameterUnit":"m.s-1","parameterCategory":2,"la1":30.2991,"la2":30.254,"lo1":-89.0895,"lo2":-89.0444,"dy":0.0017,"dx":0.0017,"nx":28,"ny":28,"refTime":"2024-02-27T09:00:00:Z","depth":"2","parameterNumber":3,"parameterNumberName":"V-component_of_CURRENTS"},"data":[0,0,0,0,0,0,0,0,0,0,0,0,0,0,0,0,0,0,0,0,0,0,0,0,0,0,0,0,0,0,0,0,0,0,0,0,0,0,0,0,0,0,0,0,0,0,0,0,0,0,0,0,0,0,0,0,0,0,-0.0296,-0.0294,0,-0.0176,-0.0175,-0.0173,-0.011,-0.011,-0.0109,-0.0109,0.0022,0.0025,0.0028,0,0,0,0,0,0,0,0,0,0,0,0,0,-0.0448,-0.0446,-0.0296,-0.0294,-0.0292,-0.0176,-0.0174,-0.0173,-0.011,-0.011,-0.0109,-0.0109,0.0021,0.0024,0.0028,0,0,0,0,0,0,0,0,0,0,0,0,0,-0.0363,-0.0446,-0.0296,-0.0245,-0.0239,-0.0176,-0.0174,-0.0173,-0.011,-0.011,-0.0109,-0.0109,0.0019,0.0024,0.0029,0.0048,0,0,0.0043,0.0045,0,0,0,0,0,0,0,0,-0.0368,-0.0358,-0.0254,-0.0248,-0.0242,-0.0155,-0.018,-0.0097,-0.011,-0.0162,-0.0109,-0.0108,-0.0035,-0.0026,-0.0008,0.0055,0.006,0.0044,0.0047,0.0049,0.005,0,0,0,0,0,0,0,-0.0374,-0.0362,-0.0251,-0.0252,-0.0245,-0.0221,-0.0208,-0.0164,-0.0104,-0.0157,-0.0152,-0.0135,-0.0032,-0.0013,-0.0004,0.0062,0.0044,0.0048,0.0051,0.0053,0.0155,0.0155,0,0,0,0,0,0,-0.0385,-0.0368,-0.0254,-0.0247,-0.0302,-0.0218,-0.0205,-0.0185,-0.0105,-0.0091,-0.0135,-0.0132,-0.0021,-0.001,0.0,0.0035,0.0049,0.0053,0.0056,0.0155,0.0155,0.0155,0,0,0,0,0,0,-0.0389,-0.0376,-0.0259,-0.0303,-0.0286,-0.0216,-0.0195,-0.0183,-0.0162,-0.0088,-0.0075,-0.0125,-0.002,-0.0006,0.0041,0.004,0.0055,0.006,0.0156,0.0155,0.0155,0.0099,0,0,0,0,0,0,-0.0394,-0.0379,-0.0377,-0.0304,-0.0284,-0.0225,-0.0195,-0.0181,-0.0151,-0.0146,-0.0075,-0.0062,-0.0019,0.0033,0.0045,0.0047,0.0063,0.0156,0.0156,0.0155,0.0101,0.0097,0.0094,0,0,0,0,0,-0.04,-0.04,-0.0378,-0.0364,-0.0281,-0.0225,-0.0213,-0.0164,-0.0151,-0.0143,-0.0095,-0.0064,0.004,0.0037,0.0051,0.0054,0.0156,0.0156,0.0155,0.0103,0.0098,0.0094,0,0,0,0,0,0,-0.0466,-0.0391,-0.0365,-0.0343,-0.0289,-0.0214,-0.0205,-0.0169,-0.0126,-0.0124,-0.006,-0.0044,-0.0009,0.0031,0.0026,0.0082,0.0101,0.0103,0.0056,0.0052,0.0048,0.0043,0.0067,0,0,0,0,0,-0.048,-0.046,-0.0383,-0.0366,-0.0343,-0.0277,-0.0251,-0.0214,-0.016,-0.0141,-0.0091,-0.0041,0.0001,0.0032,0.0071,0.011,0.0151,0.0119,0.0115,0.0111,0.0116,0.0182,0.0185,0.0154,0.0154,0.0154,0,0,-0.0501,-0.0458,-0.0447,-0.0379,-0.0338,-0.0311,-0.0261,-0.0224,-0.0202,-0.0134,-0.0101,-0.0056,0.0005,0.0043,0.0063,0.0079,0.0138,0.0111,0.0108,0.0114,0.0183,0.0186,0.0189,0.0154,0.0154,0.0154,0,0,-0.0535,-0.0496,-0.0491,-0.0453,-0.039,-0.0343,-0.0335,-0.0262,-0.0231,-0.0186,-0.014,-0.0088,-0.0025,0.0027,0.0059,0.006,0.0108,0.0062,0.0052,0.0116,0.0119,0.0122,0.0162,0.0169,0.007,0.007,0.007,0,-0.0563,-0.0545,-0.0482,-0.0469,-0.0449,-0.0363,-0.0358,-0.0309,-0.0231,-0.0203,-0.0185,-0.0077,-0.0028,0.0034,0.0032,0.0054,0.0085,0.0063,0.0111,0.0116,0.012,0.016,0.0169,0.0067,0.0067,0.0068,0.0068,0,-0.0589,-0.0578,-0.0575,-0.0529,-0.0499,-0.048,-0.0404,-0.0367,-0.032,-0.0262,-0.0195,-0.0116,-0.0047,-0.0028,0.0005,0.0058,0.0067,0.009,0.0121,0.012,0.0162,0.0172,0.0063,0.0064,0.0065,0.0066,0,0,-0.0633,-0.0601,-0.06,-0.06,-0.0533,-0.0509,-0.0472,-0.0405,-0.0375,-0.0289,-0.0242,-0.0156,-0.0101,-0.0062,-0.0006,0.0056,0.0109,0.008,0.0085,0.0116,0.0231,0.0274,0.029,0.0138,0.014,0.0141,0.024,0,-0.067,-0.0685,-0.0647,-0.0654,-0.0656,-0.058,-0.0552,-0.0481,-0.0409,-0.0339,-0.0229,-0.0168,-0.0116,-0.0085,-0.0011,0.008,0.0137,0.0079,0.0231,0.0235,0.0273,0.0304,0.0225,0.0311,0.0251,0.0253,0.0254,0,-0.0704,-0.0712,-0.074,-0.0724,-0.0716,-0.0702,-0.0642,-0.0604,-0.0481,-0.0425,-0.0324,-0.0233,-0.0119,-0.0083,0.0092,0.0049,0.013,0.0204,0.021,0.0282,0.03,0.0308,0.0333,0.0272,0.0271,0.0269,0.0268,0,-0.0776,-0.0774,-0.0806,-0.08,-0.0763,-0.0758,-0.0729,-0.0634,-0.0601,-0.0476,-0.0431,-0.0275,-0.02,-0.006,0.0107,0.0095,0.0295,0.0301,0.0417,0.042,0.0401,0.04,0.0417,0.0417,0.0416,0.0416,0.0416,0,-0.0831,-0.0852,-0.0844,-0.0861,-0.0891,-0.0835,-0.0833,-0.0774,-0.0684,-0.0648,-0.0485,-0.0415,-0.0192,-0.004,0.0099,0.0302,0.0296,0.0427,0.0461,0.0377,0.0373,0.0379,0.0374,0.042,0.0419,0.0418,0.0418,0,-0.0899,-0.0893,-0.0931,-0.0925,-0.0929,-0.095,-0.0924,-0.091,-0.0814,-0.076,-0.0724,-0.0513,-0.0315,-0.0087,0.0147,0.0288,0.0475,0.0539,0.042,0.0439,0.0551,0.0541,0.068,0.0683,0.0685,0.0687,0.0689,0,-0.0931,-0.0961,-0.0999,-0.1037,-0.1039,-0.106,-0.1072,-0.0994,-0.0974,-0.0823,-0.08,-0.0584,-0.0432,-0.0046,0.0233,0.0507,0.0518,0.0606,0.0588,0.0566,0.0585,0.0571,0.0559,0.0524,0.0524,0.0524,0.0525,0,-0.0996,-0.1011,-0.1048,-0.1139,-0.1176,-0.121,-0.1216,-0.1222,-0.1121,-0.1061,-0.0948,-0.0813,-0.0415,-0.0102,0.0299,0.0446,0.0565,0.0618,0.0644,0.0477,0.043,0.0444,0.0435,0.0525,0.0525,0.0525,0.0525,0.0525,-0.1037,-0.1093,-0.1155,-0.1238,-0.1293,-0.1352,-0.1395,-0.1368,-0.1352,-0.1247,-0.1091,-0.0872,-0.0498,0.004,0.0336,0.061,0.0602,0.0665,0.0659,0.0655,0.0627,0.0588,0.0705,0.0706,0.0707,0.0708,0.0708,0,-0.1082,-0.1162,-0.1251,-0.1354,-0.143,-0.1436,-0.1483,-0.1487,-0.1488,-0.1359,-0.123,-0.0835,-0.0429,-0.0038,0.0388,0.0665,0.0629,0.0707,0.0604,0.06,0.0598,0.0564,0.0627,0.0628,0.0629,0.063,0,0,-0.1111,-0.1212,-0.1272,-0.1439,-0.1521,-0.1603,-0.1641,-0.1628,-0.1551,-0.1446,-0.128,-0.0979,-0.0479,-0.0172,0.0179,0.0405,0.0417,0.0414,0.044,0.0266,0.026,0.0528,0.0468,0,0,0,0,0]}],[{"header":{"parameterUnit":"m.s-1","parameterCategory":2,"la1":30.2991,"la2":30.254,"lo1":-89.0895,"lo2":-89.0444,"dy":0.0017,"dx":0.0017,"nx":28,"ny":28,"refTime":"2024-02-27T09:00:00:Z","depth":"4","parameterNumber":2,"parameterNumberName":"U-component_of_CURRENTS"},"data":[0,0,0,0,0,0,0,0,0,0,0,0,0,0,0,0,0,0,0,0,0,0,0,0,0,0,0,0,0,0,0,0,0,0,0,0,0,0,0,0,0,0,0,0,0,0,0,0,0,0,0,0,0,0,0,0,0,0,-0.1607,-0.1608,0,-0.1653,-0.1653,-0.1653,-0.1701,-0.1703,-0.1704,-0.1705,-0.1808,-0.1809,-0.1811,0,0,0,0,0,0,0,0,0,0,0,0,0,-0.1479,-0.1481,-0.1606,-0.1608,-0.1609,-0.1653,-0.1653,-0.1653,-0.1701,-0.1703,-0.1705,-0.1706,-0.1807,-0.1809,-0.1811,0,0,0,0,0,0,0,0,0,0,0,0,0,-0.1524,-0.1481,-0.1606,-0.1644,-0.1648,-0.1653,-0.1653,-0.1653,-0.1701,-0.1703,-0.1705,-0.1707,-0.1807,-0.1809,-0.1811,-0.1784,0,0,-0.1818,-0.1819,0,0,0,0,0,0,0,0,-0.1521,-0.1527,-0.1637,-0.1641,-0.1646,-0.168,-0.1646,-0.1702,-0.17,-0.1673,-0.1705,-0.1708,-0.1774,-0.1779,-0.1771,-0.1789,-0.1793,-0.1818,-0.1819,-0.182,-0.1821,0,0,0,0,0,0,0,-0.1518,-0.1525,-0.1617,-0.1638,-0.1644,-0.1631,-0.164,-0.1655,-0.1707,-0.1676,-0.1681,-0.1697,-0.1776,-0.1769,-0.1775,-0.1795,-0.1818,-0.182,-0.1821,-0.1822,-0.1954,-0.1956,0,0,0,0,0,0,-0.153,-0.1523,-0.1616,-0.162,-0.1596,-0.1633,-0.1642,-0.1661,-0.1705,-0.1716,-0.1696,-0.17,-0.1764,-0.1772,-0.1779,-0.1884,-0.182,-0.1822,-0.1824,-0.1952,-0.1955,-0.1957,0,0,0,0,0,0,-0.1527,-0.1537,-0.1614,-0.1578,-0.1588,-0.1634,-0.1654,-0.1661,-0.1706,-0.1721,-0.1732,-0.1741,-0.1766,-0.1775,-0.1832,-0.1884,-0.1823,-0.1825,-0.1949,-0.1953,-0.1956,-0.201,0,0,0,0,0,0,-0.1523,-0.1536,-0.1565,-0.1579,-0.1591,-0.1673,-0.1653,-0.1661,-0.1714,-0.172,-0.1763,-0.1771,-0.1769,-0.1829,-0.1835,-0.1886,-0.1827,-0.1947,-0.1951,-0.1955,-0.2005,-0.2015,-0.2023,0,0,0,0,0,-0.1518,-0.1557,-0.1566,-0.1579,-0.1626,-0.1677,-0.1682,-0.1714,-0.1714,-0.1756,-0.1768,-0.1772,-0.186,-0.1832,-0.1838,-0.1891,-0.1945,-0.195,-0.1954,-0.2002,-0.2013,-0.2022,0,0,0,0,0,0,-0.1516,-0.1567,-0.1577,-0.163,-0.1675,-0.1689,-0.1731,-0.1739,-0.1776,-0.1791,-0.1788,-0.1798,-0.1864,-0.1872,-0.1841,-0.1944,-0.1908,-0.1915,-0.1942,-0.1953,-0.1962,-0.1957,-0.1829,0,0,0,0,0,-0.1527,-0.1576,-0.1615,-0.1663,-0.1691,-0.1712,-0.174,-0.1765,-0.1793,-0.1812,-0.184,-0.1865,-0.1878,-0.1914,-0.1931,-0.1986,-0.197,-0.203,-0.2039,-0.2046,-0.2049,-0.2038,-0.2044,-0.1973,-0.1973,-0.1973,0,0,-0.1546,-0.1575,-0.1608,-0.1668,-0.1698,-0.1738,-0.1735,-0.1802,-0.1837,-0.1817,-0.1887,-0.1894,-0.1896,-0.1951,-0.1985,-0.1976,-0.2065,-0.2052,-0.2058,-0.2057,-0.2043,-0.205,-0.2056,-0.1976,-0.1976,-0.1975,0,0,-0.1576,-0.163,-0.1669,-0.1711,-0.1776,-0.1795,-0.1827,-0.1876,-0.1913,-0.1965,-0.1952,-0.199,-0.2035,-0.2041,-0.2043,-0.2113,-0.2099,-0.2141,-0.2195,-0.2185,-0.219,-0.2194,-0.2205,-0.2209,-0.2159,-0.2159,-0.2159,0,-0.1601,-0.1634,-0.1692,-0.1728,-0.1767,-0.1825,-0.1866,-0.1907,-0.197,-0.1991,-0.2012,-0.2047,-0.2068,-0.209,-0.2127,-0.2132,-0.2128,-0.215,-0.2193,-0.2197,-0.22,-0.2209,-0.2213,-0.2163,-0.2162,-0.2162,-0.2162,0,-0.1625,-0.1675,-0.1709,-0.177,-0.1827,-0.1885,-0.1948,-0.2011,-0.2056,-0.2076,-0.2135,-0.215,-0.2169,-0.2195,-0.2186,-0.2229,-0.222,-0.2189,-0.2158,-0.221,-0.2218,-0.2221,-0.2167,-0.2166,-0.2165,-0.2164,0,0,-0.1616,-0.171,-0.172,-0.1752,-0.1855,-0.1897,-0.1981,-0.2048,-0.2084,-0.2159,-0.2192,-0.2237,-0.2249,-0.2253,-0.2258,-0.2274,-0.2311,-0.2261,-0.2259,-0.2258,-0.2308,-0.2189,-0.2181,-0.2283,-0.2284,-0.2284,-0.2312,0,-0.1616,-0.1674,-0.1729,-0.1803,-0.1843,-0.1933,-0.1994,-0.207,-0.2135,-0.2193,-0.2226,-0.2259,-0.227,-0.2286,-0.2307,-0.2302,-0.2319,-0.2308,-0.2271,-0.2271,-0.2145,-0.218,-0.2285,-0.2314,-0.2315,-0.2315,-0.2315,0,-0.1596,-0.1641,-0.1706,-0.1804,-0.1832,-0.189,-0.1995,-0.206,-0.2154,-0.22,-0.2251,-0.2278,-0.2331,-0.2322,-0.2349,-0.2343,-0.2339,-0.2334,-0.2334,-0.2201,-0.2156,-0.2248,-0.232,-0.232,-0.232,-0.2319,-0.2319,0,-0.1518,-0.1619,-0.1668,-0.1706,-0.1828,-0.1878,-0.1951,-0.2056,-0.2113,-0.2207,-0.2251,-0.23,-0.2339,-0.234,-0.2372,-0.2359,-0.2389,-0.2354,-0.2242,-0.2235,-0.2308,-0.2303,-0.2355,-0.2355,-0.2355,-0.2355,-0.2355,0,-0.1473,-0.1514,-0.1638,-0.1663,-0.1725,-0.1835,-0.1907,-0.1986,-0.2095,-0.2147,-0.2247,-0.2285,-0.2346,-0.2382,-0.2381,-0.2332,-0.2394,-0.2253,-0.2227,-0.2337,-0.2335,-0.2312,-0.2306,-0.2356,-0.2356,-0.2356,-0.2355,0,-0.1376,-0.146,-0.1517,-0.1644,-0.169,-0.1734,-0.1881,-0.1926,-0.2048,-0.2123,-0.2157,-0.2286,-0.2323,-0.2375,-0.2389,-0.2331,-0.2298,-0.2263,-0.2412,-0.2394,-0.2152,-0.2149,-0.212,-0.2116,-0.2112,-0.2109,-0.2107,0,-0.133,-0.135,-0.1479,-0.1517,-0.158,-0.1669,-0.173,-0.1877,-0.1934,-0.2101,-0.2123,-0.2222,-0.2283,-0.2223,-0.2282,-0.2261,-0.2234,-0.2212,-0.215,-0.2147,-0.2125,-0.2128,-0.213,-0.2101,-0.2101,-0.21,-0.2099,0,-0.1233,-0.1288,-0.1335,-0.1408,-0.148,-0.1548,-0.1653,-0.1684,-0.1847,-0.1975,-0.2029,-0.206,-0.2108,-0.213,-0.2141,-0.2121,-0.2218,-0.2175,-0.2181,-0.2122,-0.2124,-0.2106,-0.2112,-0.2087,-0.2088,-0.2089,-0.209,0,-0.1158,-0.1163,-0.1231,-0.1282,-0.1364,-0.1405,-0.1481,-0.1562,-0.1639,-0.1841,-0.185,-0.1966,-0.2081,-0.2058,-0.2065,-0.2043,-0.1998,-0.1926,-0.1944,-0.1959,-0.1892,-0.187,-0.173,0,0,0,0,0,-0.1078,-0.1071,-0.1106,-0.1158,-0.1231,-0.128,-0.142,-0.1506,-0.1672,-0.1661,-0.1754,-0.1791,-0.1819,-0.1888,-0.1827,-0.1978,-0.1998,-0.1899,-0.1922,-0.2019,-0.2033,-0.197,0,0,0,0,0,0,-0.1025,-0.1047,-0.1055,-0.1035,-0.1051,-0.1122,-0.1205,-0.1326,-0.1343,-0.1516,-0.1543,-0.167,-0.1723,-0.1812,-0.1781,-0.1799,-0.1777,-0.1978,-0.1974,-0.2011,-0.2024,-0.2035,-0.1975,0,0,0,0,0]},{"header":{"parameterUnit":"m.s-1","parameterCategory":2,"la1":30.2991,"la2":30.254,"lo1":-89.0895,"lo2":-89.0444,"dy":0.0017,"dx":0.0017,"nx":28,"ny":28,"refTime":"2024-02-27T09:00:00:Z","depth":"4","parameterNumber":3,"parameterNumberName":"V-component_of_CURRENTS"},"data":[0,0,0,0,0,0,0,0,0,0,0,0,0,0,0,0,0,0,0,0,0,0,0,0,0,0,0,0,0,0,0,0,0,0,0,0,0,0,0,0,0,0,0,0,0,0,0,0,0,0,0,0,0,0,0,0,0,0,-0.0071,-0.007,0,-0.0002,-0.0001,-0.0001,0.0039,0.0039,0.004,0.004,0.0113,0.0115,0.0116,0,0,0,0,0,0,0,0,0,0,0,0,0,-0.0113,-0.0112,-0.0071,-0.007,-0.0069,-0.0002,-0.0001,-0.0,0.0039,0.0039,0.004,0.004,0.0112,0.0114,0.0116,0,0,0,0,0,0,0,0,0,0,0,0,0,-0.0075,-0.0112,-0.0071,-0.004,-0.0037,-0.0002,-0.0001,-0.0,0.0039,0.0039,0.004,0.004,0.0112,0.0114,0.0117,0.0125,0,0,0.0125,0.0126,0,0,0,0,0,0,0,0,-0.0078,-0.0074,-0.0046,-0.0042,-0.0038,0.0011,0.0011,0.0042,0.0039,0.0009,0.004,0.004,0.008,0.0085,0.0095,0.0128,0.0131,0.0125,0.0126,0.0127,0.0128,0,0,0,0,0,0,0,-0.008,-0.0076,-0.0045,-0.0045,-0.004,-0.0011,-0.0006,0.0017,0.0041,0.0012,0.0015,0.0024,0.0082,0.0093,0.0097,0.0132,0.0125,0.0127,0.0129,0.013,0.0179,0.0179,0,0,0,0,0,0,-0.009,-0.0079,-0.0047,-0.0042,-0.0056,-0.0011,-0.0005,-0.0006,0.004,0.0048,0.0024,0.0026,0.0088,0.0094,0.01,0.0107,0.0127,0.013,0.0131,0.0179,0.0179,0.0178,0,0,0,0,0,0,-0.0091,-0.0088,-0.0049,-0.0058,-0.0051,-0.0011,-0.0012,-0.0005,0.0007,0.005,0.0058,0.0029,0.0089,0.0097,0.0118,0.011,0.0131,0.0133,0.0179,0.0179,0.0179,0.0123,0,0,0,0,0,0,-0.0093,-0.0089,-0.0098,-0.0059,-0.005,-0.0038,-0.0012,-0.0004,0.0013,0.0016,0.0057,0.0064,0.009,0.0114,0.0121,0.0114,0.0135,0.018,0.0179,0.0179,0.0126,0.0121,0.0118,0,0,0,0,0,-0.0095,-0.0112,-0.01,-0.0096,-0.0063,-0.0038,-0.0032,-0.0002,0.0013,0.0011,0.0042,0.0063,0.0116,0.0116,0.0124,0.0118,0.018,0.0179,0.0179,0.0127,0.0122,0.0118,0,0,0,0,0,0,-0.0137,-0.0108,-0.0094,-0.0102,-0.0075,-0.0031,-0.0033,-0.0006,0.0017,0.0018,0.0061,0.007,0.0083,0.0109,0.0108,0.0131,0.0151,0.0152,0.0109,0.0105,0.0101,0.0094,0.0137,0,0,0,0,0,-0.015,-0.0157,-0.0117,-0.0125,-0.0115,-0.0074,-0.0061,-0.0038,-0.0009,0.0002,0.0033,0.0064,0.0087,0.0103,0.0124,0.0139,0.0177,0.0141,0.0137,0.0133,0.0133,0.019,0.0192,0.0177,0.0177,0.0177,0,0,-0.0171,-0.0154,-0.016,-0.0135,-0.0114,-0.0109,-0.0066,-0.0053,-0.0047,0.0006,0.0016,0.0048,0.0087,0.01,0.0109,0.0122,0.0154,0.0132,0.0129,0.0131,0.019,0.0191,0.0193,0.0176,0.0177,0.0177,0,0,-0.0211,-0.02,-0.0215,-0.0199,-0.0168,-0.0141,-0.0139,-0.0097,-0.0079,-0.0058,-0.0022,0.001,0.0044,0.0075,0.0095,0.0085,0.0128,0.0086,0.0066,0.0121,0.0122,0.0125,0.0163,0.0169,0.0089,0.0088,0.0088,0,-0.0237,-0.0248,-0.0216,-0.0221,-0.0217,-0.016,-0.0172,-0.0143,-0.0099,-0.0085,-0.0065,0.0002,0.0035,0.0065,0.006,0.0076,0.0108,0.0079,0.0116,0.0119,0.0122,0.0161,0.0168,0.0086,0.0086,0.0086,0.0087,0,-0.0278,-0.029,-0.0299,-0.029,-0.028,-0.0282,-0.0239,-0.0222,-0.0188,-0.0151,-0.0112,-0.0054,-0.001,0.0004,0.003,0.0063,0.0078,0.01,0.0127,0.012,0.0161,0.017,0.0082,0.0083,0.0084,0.0084,0,0,-0.0326,-0.033,-0.0332,-0.0345,-0.0319,-0.0316,-0.0307,-0.0277,-0.0266,-0.0207,-0.0182,-0.0125,-0.0078,-0.0052,-0.0007,0.0046,0.0093,0.0077,0.0081,0.0112,0.0203,0.0185,0.0193,0.0122,0.0123,0.0124,0.0219,0,-0.0366,-0.0403,-0.0389,-0.0423,-0.0439,-0.0398,-0.0396,-0.0361,-0.0315,-0.0274,-0.019,-0.0152,-0.0104,-0.0079,-0.0019,0.0068,0.0115,0.0065,0.0207,0.0211,0.0195,0.0202,0.0129,0.0225,0.0227,0.0229,0.023,0,-0.0402,-0.0425,-0.0473,-0.0493,-0.0496,-0.0507,-0.0491,-0.048,-0.0406,-0.0368,-0.0298,-0.0225,-0.0137,-0.0095,0.0058,0.0023,0.0102,0.0173,0.0179,0.0189,0.021,0.0238,0.0246,0.0245,0.0244,0.0243,0.0242,0,-0.0445,-0.048,-0.0525,-0.0533,-0.0543,-0.0558,-0.0557,-0.0511,-0.05,-0.0422,-0.039,-0.0274,-0.0208,-0.0084,0.007,0.0064,0.0241,0.0254,0.0311,0.031,0.0323,0.032,0.0354,0.0354,0.0353,0.0353,0.0353,0,-0.0485,-0.052,-0.0553,-0.0578,-0.063,-0.0616,-0.0646,-0.0619,-0.0573,-0.0557,-0.0441,-0.0385,-0.02,-0.007,0.0059,0.0215,0.0237,0.0309,0.0337,0.0295,0.0288,0.0329,0.0325,0.0357,0.0356,0.0355,0.0355,0,-0.0514,-0.0537,-0.0594,-0.0634,-0.0654,-0.0689,-0.0716,-0.0722,-0.0672,-0.0641,-0.0616,-0.0458,-0.0296,-0.0112,0.0096,0.0193,0.0347,0.0392,0.0326,0.0349,0.0379,0.0371,0.046,0.046,0.046,0.0461,0.0461,0,-0.053,-0.0564,-0.0642,-0.0688,-0.0712,-0.0764,-0.0795,-0.0776,-0.0772,-0.0681,-0.0657,-0.0499,-0.0383,-0.0098,0.0089,0.0328,0.0356,0.0432,0.041,0.0373,0.0392,0.0384,0.0375,0.0461,0.0461,0.0461,0.0461,0,-0.0561,-0.0592,-0.0639,-0.0737,-0.0795,-0.0855,-0.0891,-0.0893,-0.0853,-0.0808,-0.0687,-0.0523,-0.0342,-0.0113,0.0071,0.0245,0.0385,0.0434,0.0435,0.0415,0.0376,0.0392,0.0384,0.0462,0.0462,0.0462,0.0462,0,-0.0578,-0.0621,-0.0693,-0.0773,-0.0855,-0.0915,-0.0936,-0.092,-0.0906,-0.0796,-0.0758,-0.0546,-0.0417,-0.0156,0.0023,0.0186,0.022,0.0268,0.0277,0.0279,0.0199,0.012,0.0154,0,0,0,0,0,-0.0587,-0.0642,-0.0725,-0.0815,-0.0895,-0.0943,-0.098,-0.098,-0.094,-0.087,-0.0813,-0.0643,-0.0363,-0.0222,-0.0067,0.0016,0.0241,0.0203,0.0298,0.0466,0.0465,0.04,0,0,0,0,0,0,-0.0598,-0.0675,-0.0723,-0.0828,-0.0894,-0.0978,-0.1007,-0.0986,-0.0933,-0.0867,-0.0717,-0.0616,-0.0343,-0.0462,-0.0069,-0.0014,0.0065,0.0344,0.0347,0.0466,0.0465,0.0465,0.0398,0,0,0,0,0]}]]